Location: El Bakhil
(32.7726°N, 5.5387°W)
Time: 17:33:02
(UTC+00:00)

DIWATA 2B (PO-101) - Pass Details

Date: 31 July 2021
Orbit: 584 x 600 km, 97.9° (Epoch: 19 September)

Event Time Altitude Azimuth Distance (km) Brightness Sun altitude
Exits shadow 01:29:23 14° 11° (N) 1,665 ? -37.0°
Drops below altitude 10° 01:30:07 10° 6° (N) 1,941 ? -36.9°
Sets 01:32:25 0° 358° (N) 2,849 ? -36.8°
